Location: Mary A Oil Field
(38.5606°N, 98.9545°W)
Time: 18:09:59
(UTC+00:00)

Cosmos 1953 - Pass Details

Date: 20 January 2020
Orbit: 539 x 558 km, 82.5° (Epoch: 20 February)

Event Time Altitude Azimuth Distance (km) Brightness Sun altitude
Rises 11:29:00 0° 170° (S) 2,714 6.0 -27.3°
Reaches altitude 10° 11:31:13 10° 164° (SSE) 1,828 5.2 -26.9°
Maximum altitude 11:35:02 42° 93° (E) 796 3.5 -26.2°
Drops below altitude 10° 11:38:53 10° 22° (NNE) 1,849 5.2 -25.4°
Sets 11:41:08 0° 15° (NNE) 2,750 6.0 -25.0°
